Previsão horária em Jurowce

Hoje, 24 Junho, Quinta-feira

Tempo Temperatura Precipitação Vento Pressão Humidade
00:00 +22°C° 0 mm 1 m/s 737 mmHg 95%
01:00 +21°C° 0 mm 1 m/s 737 mmHg 96%
02:00 +19°C° 0 mm 0 m/s 736 mmHg 96%
03:00 +19°C° 0 mm 0 m/s 736 mmHg 96%
04:00 +19°C° 0 mm 0 m/s 736 mmHg 96%
05:00 +20°C° 0 mm 0 m/s 736 mmHg 92%
06:00 +24°C° 0 mm 1 m/s 736 mmHg 87%
07:00 +26°C° 0 mm 1 m/s 736 mmHg 82%
08:00 +28°C° 0 mm 1 m/s 736 mmHg 71%
09:00 +30°C° 0 mm 2 m/s 736 mmHg 60%
10:00 +32°C° 0 mm 2 m/s 736 mmHg 49%
11:00 +34°C° 0 mm 2 m/s 736 mmHg 47%
12:00 +35°C° 0 mm 3 m/s 736 mmHg 44%
13:00 +35°C° 0 mm 3 m/s 735 mmHg 42%
14:00 +35°C° 0.2 mm 3 m/s 735 mmHg 46%
15:00 +34°C° 0.2 mm 3 m/s 735 mmHg 50%
16:00 +33°C° 0.2 mm 4 m/s 734 mmHg 55%
17:00 +29°C° 1.5 mm 3 m/s 734 mmHg 67%
18:00 +26°C° 1.5 mm 2 m/s 734 mmHg 80%
19:00 +22°C° 1.5 mm 1 m/s 734 mmHg 92%
20:00 +22°C° 0.2 mm 1 m/s 734 mmHg 92%
21:00 +22°C° 0.2 mm 1 m/s 734 mmHg 92%
22:00 +22°C° 0.2 mm 1 m/s 734 mmHg 91%
23:00 +22°C° 0.4 mm 1 m/s 734 mmHg 92%

Amanhã, 25 Junho, Sexta-feira

Tempo Temperatura Precipitação Vento Pressão Humidade
00:00 +22°C° 0.4 mm 1 m/s 734 mmHg 92%
01:00 +21°C° 0.4 mm 1 m/s 734 mmHg 92%
02:00 +21°C° 0 mm 1 m/s 734 mmHg 92%
03:00 +21°C° 0 mm 1 m/s 733 mmHg 92%
04:00 +21°C° 0 mm 2 m/s 733 mmHg 92%
05:00 +23°C° 0 mm 2 m/s 733 mmHg 86%
06:00 +25°C° 0 mm 3 m/s 733 mmHg 80%
07:00 +27°C° 0 mm 3 m/s 733 mmHg 74%
08:00 +27°C° 0 mm 4 m/s 734 mmHg 72%
09:00 +27°C° 0 mm 4 m/s 734 mmHg 70%
10:00 +27°C° 0 mm 5 m/s 735 mmHg 68%
11:00 +26°C° 0 mm 5 m/s 735 mmHg 69%
12:00 +26°C° 0 mm 4 m/s 735 mmHg 70%
13:00 +25°C° 0 mm 4 m/s 735 mmHg 71%
14:00 +23°C° 0 mm 4 m/s 735 mmHg 72%
15:00 +23°C° 0 mm 4 m/s 735 mmHg 73%
16:00 +22°C° 0 mm 4 m/s 735 mmHg 74%
17:00 +22°C° 0 mm 3 m/s 735 mmHg 77%
18:00 +21°C° 0 mm 3 m/s 735 mmHg 80%
19:00 +20°C° 0 mm 3 m/s 735 mmHg 83%
20:00 +19°C° 0 mm 2 m/s 735 mmHg 86%
21:00 +18°C° 0 mm 2 m/s 736 mmHg 90%
22:00 +16°C° 0 mm 1 m/s 737 mmHg 93%
23:00 +16°C° 0 mm 1 m/s 737 mmHg 94%

Depois de amanhã, 26 Junho, Sábado

Tempo Temperatura Precipitação Vento Pressão Humidade
00:00 +16°C° 0 mm 1 m/s 736 mmHg 94%
01:00 +15°C° 0 mm 1 m/s 736 mmHg 95%
02:00 +15°C° 0 mm 1 m/s 736 mmHg 95%
03:00 +15°C° 0 mm 1 m/s 736 mmHg 95%
04:00 +15°C° 0 mm 1 m/s 736 mmHg 95%
05:00 +16°C° 0.1 mm 1 m/s 736 mmHg 92%
06:00 +17°C° 0.1 mm 2 m/s 737 mmHg 89%
07:00 +18°C° 0.1 mm 2 m/s 737 mmHg 86%
08:00 +19°C° 0.1 mm 2 m/s 737 mmHg 81%
09:00 +20°C° 0.1 mm 2 m/s 737 mmHg 76%
10:00 +21°C° 0.1 mm 3 m/s 737 mmHg 70%
11:00 +22°C° 0.1 mm 3 m/s 737 mmHg 70%
12:00 +22°C° 0.1 mm 3 m/s 737 mmHg 69%
13:00 +22°C° 0.1 mm 3 m/s 737 mmHg 69%
14:00 +22°C° 0 mm 3 m/s 737 mmHg 67%
15:00 +24°C° 0 mm 3 m/s 737 mmHg 66%
16:00 +24°C° 0 mm 3 m/s 736 mmHg 65%
17:00 +22°C° 0.1 mm 3 m/s 736 mmHg 73%
18:00 +21°C° 0.1 mm 2 m/s 736 mmHg 80%
19:00 +20°C° 0.1 mm 2 m/s 736 mmHg 87%
20:00 +20°C° 0 mm 1 m/s 736 mmHg 89%
21:00 +19°C° 0 mm 1 m/s 736 mmHg 91%
22:00 +18°C° 0 mm 1 m/s 736 mmHg 93%
23:00 +18°C° 0 mm 1 m/s 736 mmHg 94%

27 Junho, Domingo

Tempo Temperatura Precipitação Vento Pressão Humidade
00:00 +16°C° 0 mm 1 m/s 737 mmHg 94%
01:00 +16°C° 0 mm 1 m/s 737 mmHg 94%
02:00 +16°C° 0 mm 1 m/s 737 mmHg 94%
03:00 +16°C° 0 mm 1 m/s 737 mmHg 94%
04:00 +16°C° 0 mm 1 m/s 737 mmHg 94%
05:00 +18°C° 0 mm 1 m/s 737 mmHg 90%
06:00 +20°C° 0 mm 1 m/s 737 mmHg 85%
07:00 +21°C° 0 mm 1 m/s 737 mmHg 80%
08:00 +21°C° 0 mm 2 m/s 737 mmHg 73%
09:00 +24°C° 0 mm 2 m/s 737 mmHg 66%
10:00 +25°C° 0 mm 3 m/s 737 mmHg 59%
11:00 +25°C° 0 mm 3 m/s 737 mmHg 58%
12:00 +26°C° 0 mm 2 m/s 737 mmHg 56%
13:00 +26°C° 0 mm 2 m/s 737 mmHg 55%
14:00 +26°C° 0 mm 2 m/s 737 mmHg 56%
15:00 +26°C° 0 mm 2 m/s 737 mmHg 58%
16:00 +25°C° 0 mm 2 m/s 737 mmHg 60%
17:00 +24°C° 0 mm 2 m/s 737 mmHg 67%
18:00 +23°C° 0 mm 1 m/s 737 mmHg 74%
19:00 +22°C° 0 mm 1 m/s 736 mmHg 80%
20:00 +20°C° 0 mm 1 m/s 737 mmHg 84%
21:00 +19°C° 0 mm 1 m/s 737 mmHg 87%
22:00 +18°C° 0 mm 1 m/s 737 mmHg 90%
23:00 +16°C° 0 mm 0 m/s 737 mmHg 91%

28 Junho, Segunda-feira

Tempo Temperatura Precipitação Vento Pressão Humidade
00:00 +15°C° 0 mm 0 m/s 737 mmHg 91%
01:00 +15°C° 0 mm 0 m/s 737 mmHg 92%
02:00 +15°C° 0 mm 0 m/s 737 mmHg 92%
03:00 +15°C° 0 mm 0 m/s 737 mmHg 92%
04:00 +16°C° 0 mm 1 m/s 737 mmHg 93%
05:00 +19°C° 0 mm 1 m/s 737 mmHg 85%
06:00 +21°C° 0 mm 1 m/s 738 mmHg 77%
07:00 +23°C° 0 mm 1 m/s 738 mmHg 69%
08:00 +24°C° 0 mm 1 m/s 738 mmHg 63%
09:00 +26°C° 0 mm 2 m/s 738 mmHg 56%
10:00 +27°C° 0 mm 2 m/s 738 mmHg 49%
11:00 +28°C° 0 mm 2 m/s 738 mmHg 47%
12:00 +29°C° 0 mm 2 m/s 738 mmHg 45%
13:00 +29°C° 0 mm 2 m/s 738 mmHg 42%
14:00 +29°C° 0 mm 2 m/s 738 mmHg 44%
15:00 +29°C° 0 mm 3 m/s 737 mmHg 45%
16:00 +29°C° 0 mm 3 m/s 737 mmHg 46%
17:00 +27°C° 0 mm 2 m/s 737 mmHg 56%
18:00 +25°C° 0 mm 2 m/s 737 mmHg 66%
19:00 +23°C° 0 mm 1 m/s 737 mmHg 76%
20:00 +22°C° 0 mm 1 m/s 737 mmHg 79%
21:00 +20°C° 0 mm 1 m/s 737 mmHg 82%
22:00 +19°C° 0 mm 1 m/s 738 mmHg 85%
23:00 +19°C° 0 mm 1 m/s 738 mmHg 86%

29 Junho, Terça-feira

Tempo Temperatura Precipitação Vento Pressão Humidade
00:00 +19°C° 0 mm 1 m/s 738 mmHg 87%
01:00 +18°C° 0 mm 1 m/s 737 mmHg 88%
02:00 +18°C° 0 mm 1 m/s 737 mmHg 87%
03:00 +18°C° 0 mm 1 m/s 737 mmHg 86%
04:00 +18°C° 0 mm 1 m/s 737 mmHg 85%
05:00 +20°C° 0 mm 1 m/s 738 mmHg 77%
06:00 +22°C° 0 mm 1 m/s 738 mmHg 69%
07:00 +25°C° 0 mm 1 m/s 738 mmHg 60%
08:00 +26°C° 0 mm 2 m/s 738 mmHg 55%
09:00 +28°C° 0 mm 2 m/s 738 mmHg 49%
10:00 +30°C° 0 mm 2 m/s 738 mmHg 43%
11:00 +30°C° 0 mm 2 m/s 738 mmHg 42%
12:00 +31°C° 0 mm 2 m/s 738 mmHg 40%
13:00 +31°C° 0 mm 3 m/s 737 mmHg 39%
14:00 +31°C° 0 mm 3 m/s 737 mmHg 41%
15:00 +30°C° 0 mm 3 m/s 737 mmHg 44%
16:00 +30°C° 0 mm 3 m/s 737 mmHg 46%
17:00 +28°C° 0 mm 3 m/s 737 mmHg 56%
18:00 +26°C° 0 mm 2 m/s 737 mmHg 66%
19:00 +24°C° 0 mm 2 m/s 737 mmHg 76%
20:00 +23°C° 0 mm 1 m/s 737 mmHg 80%
21:00 +21°C° 0 mm 1 m/s 737 mmHg 83%
22:00 +20°C° 0 mm 1 m/s 737 mmHg 87%
23:00 +20°C° 0 mm 1 m/s 737 mmHg 87%
Mostrar mais

Necessitamos do seu Consentimento

A Meteoprog e os seus Fornecedores de Serviços podem armazenar e aceder a dados pessoais como cookies, identificadores do dispositivo ou outras tecnologias semelhantes existentes no seu dispositivo e processar estes dados para personalizar conteúdos e anúncios, assim como funcionalidades nas redes sociais e análise de tráfego.

  • Armazenar e/ou aceder a informações no seu dispositivo

    Os cookies, identificadores do dispositivo ou outras informações podem ser armazenados ou acedidos no seu dispositivo, para os fins acima indicados.

  • Anúncios e conteúdos personalizados, medição de anúncios e conteúdos, dados sobre o público-alvo e desenvolvimento de produtos

    Os anúncios e os conteúdos podem ser personalizados com base num perfil. Podem ser adicionados dados adicionais para uma maior personalização dos anúncios e dos conteúdos. A eficácia dos anúncios e dos conteúdos pode ser medida. Podem ser obtidas informações sobre o público que visualizou os anúncios e os conteúdos. Estes dados podem ser usados para desenvolver ou melhorar sistemas, softwares ou a experiência do utilizador.

Ao clicar em "Eu concordo”, permitirá o uso de cookies, identificadores do dispositivo e web beacons mencionados ou outras tecnologias semelhantes. As configurações do navegador do seu dispositivo podem ser alteradas.

Para certos fins, podem ser invocados interesses legítimos ao invés de consentimento. Pode ler mais informação sobre este assunto na nossa Política de Privacidade e Cookies.